RH
50 49 49 49 48 48 46 44 42 40 40 40 41 42 45 49 51 46 39 36 33 30 30 29 26 24 23 21 20 17 17 16 15 15 12 11 10 10 10 9 9 9 8 8 8 7 7 7 6 6 7 7 7 8 8 8 8 8 8 7 8 12 13 20 43 50 40 48 47 51 83 99 101 102 103 101 100 103 93 92 96 85 82 81 84 100 98 84
52 53 53 52 52 50 48 45 43 42 41 42 42 44 48 52 53 49 41 38 36 32 31 31 28 25 25 23 21 19 17 16 15 15 14 12 11 10 10 10 9 9 9 8 8 8 8 7 7 6 6 7 7 8 8 9 9 8 9 7 15 36 41 31 41 49 39 40 35 42 80 101 100 100 102 101 103 103 86 78 86 94 92 76 79 97 102 88
55 55 56 56 55 53 49 46 45 44 43 44 45 47 51 55 54 50 43 39 37 34 32 32 31 27 26 25 23 21 19 17 16 15 15 14 12 11 9 10 10 9 9 9 8 8 9 7 7 7 6 7 6 8 8 8 9 8 10 9 23 58 68 47 41 44 45 55 49 48 82 104 101 96 96 94 91 85 73 64 69 95 96 71 83 103 99 84
58 58 58 58 57 55 51 48 46 46 45 46 47 50 54 57 55 49 44 41 38 36 33 32 32 30 27 27 25 23 21 18 17 15 15 15 14 13 10 10 10 10 9 9 9 8 9 8 8 7 6 7 6 8 8 8 10 10 16 12 25 68 81 58 43 38 50 79 75 59 76 91 88 82 79 75 69 62 57 46 48 90 100 69 86 107 91 81
60 60 60 60 58 56 53 50 48 47 47 48 51 55 58 58 54 48 43 40 38 36 34 32 32 31 28 28 27 24 22 20 18 16 15 14 14 14 12 11 9 10 10 9 9 8 9 8 8 8 6 7 6 7 7 8 9 15 25 20 33 80 91 63 47 38 43 68 68 50 52 61 66 70 68 62 58 52 45 36 34 77 104 78 83 103 88 82
61 61 61 61 60 58 56 53 51 50 50 52 56 59 60 59 54 47 41 36 35 36 35 33 32 32 30 29 28 26 24 22 20 17 15 14 14 14 13 12 10 10 10 10 10 9 9 8 8 8 7 7 7 7 8 8 10 21 32 28 46 88 93 69 60 51 42 50 53 43 41 53 67 68 61 53 52 47 38 36 31 62 103 95 84 88 87 88
63 63 62 62 61 60 59 58 56 55 56 59 62 63 62 59 54 47 40 34 32 34 35 34 33 33 32 31 30 27 25 23 21 19 17 15 14 14 14 13 11 10 10 10 10 9 9 9 9 8 9 9 8 7 9 10 12 25 38 40 55 77 79 71 71 64 49 42 44 47 53 65 72 63 51 41 41 42 35 35 32 54 92 103 97 81 83 101
67 67 66 65 64 63 62 62 62 63 65 67 67 66 64 60 55 48 40 34 31 32 35 35 35 35 34 32 30 28 27 24 21 19 17 16 15 15 14 13 12 11 10 10 10 10 9 9 9 8 9 9 9 8 8 12 16 24 35 43 52 57 58 68 75 65 45 31 31 41 53 62 64 55 41 31 35 40 39 38 32 49 80 95 106 95 86 99
71 72 72 72 71 69 69 69 69 70 70 70 69 67 65 62 58 53 44 36 33 32 34 37 37 38 37 34 31 29 28 25 22 20 18 18 16 15 15 14 13 12 10 10 10 10 9 9 9 9 9 9 9 9 7 10 15 21 27 33 39 39 48 69 80 68 45 28 26 33 41 44 45 44 34 26 36 44 53 62 47 45 71 86 97 104 100 96
74 74 73 73 72 71 71 70 69 69 67 67 67 67 67 65 62 57 49 40 36 34 35 38 39 39 39 36 32 31 29 26 23 20 19 19 17 16 15 14 13 13 11 10 10 10 10 9 9 9 9 9 9 9 8 9 13 21 25 26 28 29 39 57 65 59 43 29 29 35 37 36 35 38 32 25 37 47 64 89 77 54 62 81 92 99 104 101
72 69 67 64 62 61 61 61 60 60 60 62 64 66 69 68 65 60 53 45 41 37 36 38 39 39 39 37 34 32 29 26 24 22 20 20 18 16 16 15 14 13 12 10 10 10 10 9 9 9 9 9 9 8 8 9 14 24 32 31 33 34 34 39 43 42 37 29 30 34 35 38 41 42 28 22 41 51 64 95 99 76 63 68 84 95 99 101
65 63 60 56 53 51 50 52 53 53 54 57 60 64 66 66 63 59 54 50 45 40 38 38 38 38 38 37 34 31 29 27 25 22 21 20 18 17 16 16 15 14 13 11 10 10 10 10 10 10 9 9 9 9 8 8 12 28 45 44 42 43 34 32 36 40 44 35 27 28 34 40 44 43 27 20 43 58 67 93 104 94 77 58 60 79 88 90
58 57 56 54 51 49 48 48 49 50 51 53 56 58 58 58 57 56 54 51 47 42 40 38 38 37 37 37 34 30 29 28 26 23 22 20 17 16 15 16 16 15 14 12 11 10 10 10 10 10 9 9 9 9 9 9 8 20 45 52 49 50 46 43 44 46 49 39 23 23 34 40 36 35 28 19 35 60 73 89 102 99 93 79 58 54 65 75
56 57 56 54 50 47 44 44 45 46 47 50 53 55 55 55 54 54 52 49 46 42 41 39 38 37 36 36 33 29 29 30 26 23 22 19 16 15 15 15 16 16 15 13 11 11 10 10 11 11 10 9 10 10 9 10 8 10 26 39 41 43 44 46 49 48 45 38 28 25 32 38 34 27 26 21 22 48 68 78 98 103 96 99 85 59 51 64
51 50 48 45 42 38 36 38 38 37 37 39 45 49 51 51 50 50 48 45 43 40 39 38 38 37 36 36 33 28 31 30 24 23 22 19 16 15 15 16 17 17 15 14 12 11 11 12 13 12 10 10 10 10 10 9 10 8 11 17 20 22 24 29 37 40 36 34 32 29 30 34 37 30 25 26 19 33 62 70 83 102 99 97 101 88 65 59
37 36 34 32 30 29 30 31 29 27 26 28 31 35 39 40 41 40 40 38 37 36 36 35 36 36 36 36 33 30 31 28 23 25 23 18 16 15 16 17 17 18 17 15 13 12 13 13 13 12 11 11 11 11 11 10 10 10 9 9 10 10 12 15 20 23 22 24 25 26 27 25 32 36 28 28 23 30 65 75 68 85 101 99 99 102 92 79
25 25 24 23 22 23 24 24 23 22 23 24 25 26 28 29 30 31 31 30 30 31 32 33 34 34 35 35 32 31 30 27 26 28 23 17 16 15 16 18 18 19 18 15 14 14 15 14 13 13 12 12 12 12 11 11 10 10 10 9 10 8 8 11 12 12 12 14 18 22 26 23 24 31 28 25 26 30 51 66 64 68 85 94 92 95 101 98
19 19 18 18 18 19 19 19 20 20 21 22 23 24 24 24 24 25 25 26 26 28 30 32 33 33 35 34 33 32 29 27 29 28 21 17 17 17 17 18 19 19 18 16 15 15 16 15 14 13 13 13 13 13 12 12 11 11 11 10 10 9 8 9 8 8 9 10 13 17 24 29 26 25 22 19 22 22 23 31 46 60 71 81 81 83 93 98
17 17 16 16 16 16 16 16 16 16 17 18 19 20 21 22 23 23 23 24 25 28 29 30 31 33 34 34 33 30 27 29 31 26 19 17 17 17 19 19 19 19 18 17 16 16 15 15 15 14 13 14 13 13 13 12 12 11 11 11 10 10 9 10 10 8 8 13 17 17 19 24 28 25 18 16 16 16 14 9 18 37 55 69 76 80 82 87
16 15 15 14 15 15 14 14 14 14 14 15 16 16 17 18 19 21 22 23 25 26 27 28 30 31 33 32 29 28 29 32 30 23 18 18 18 18 19 19 18 18 17 17 16 16 15 15 15 14 13 13 13 13 13 13 13 11 11 11 11 10 9 9 12 9 8 17 23 24 23 21 27 30 23 16 11 12 13 9 9 15 26 42 59 73 71 67
16 15 14 14 14 14 13 13 13 13 13 13 14 14 14 15 16 17 19 21 23 24 25 27 28 30 31 29 27 30 33 32 27 21 19 18 18 18 18 18 17 17 16 16 16 15 15 15 15 14 13 13 14 14 14 13 13 13 12 12 11 11 10 11 16 16 13 20 24 25 31 33 33 34 28 20 14 14 15 13 13 12 14 18 28 52 59 55
15 14 14 14 13 13 12 12 12 12 12 12 13 13 13 14 14 15 16 18 21 22 25 26 27 28 27 26 28 32 32 30 25 20 19 19 18 18 18 17 17 17 16 16 16 15 14 15 14 14 14 14 14 14 15 15 13 13 12 12 13 12 11 12 21 26 20 18 19 19 32 45 43 33 25 22 17 17 24 23 17 13 18 18 13 26 36 41
15 14 14 13 12 12 11 12 12 11 12 11 11 11 12 13 13 14 15 16 18 20 23 24 26 26 25 27 30 31 30 28 24 19 18 19 18 18 17 17 16 16 16 15 15 14 13 14 14 14 14 14 14 14 14 14 13 13 12 12 12 12 11 11 20 32 32 26 21 21 35 50 49 34 19 15 14 17 26 30 24 16 20 26 20 16 20 29
15 14 13 13 12 12 11 11 11 11 11 11 11 11 11 12 12 13 14 15 16 18 20 21 23 23 24 29 30 28 29 27 21 18 19 19 18 18 16 16 16 15 15 14 13 13 13 13 13 13 13 13 13 13 13 13 13 13 12 12 11 11 12 10 13 26 38 42 37 34 41 49 49 40 22 11 13 20 23 27 29 23 20 27 28 23 28 36
15 14 14 14 13 13 12 12 11 11 11 11 11 11 11 11 11 12 13 14 15 16 17 18 20 22 24 27 28 28 28 23 18 18 19 19 17 17 16 16 15 15 14 13 12 13 13 13 13 12 12 12 11 11 11 12 13 12 11 11 12 11 11 11 11 14 22 30 33 33 34 40 44 42 30 17 17 26 29 30 34 32 24 24 25 29 37 40
15 15 14 14 14 13 13 13 13 13 12 12 12 11 11 12 11 12 12 13 14 15 16 17 18 21 24 26 27 27 25 20 18 20 19 18 17 16 16 16 15 15 14 13 13 13 13 13 13 13 12 11 11 11 11 11 12 12 12 11 11 11 10 11 12 12 13 13 15 19 20 24 31 35 34 28 23 25 32 37 38 37 32 25 24 29 34 37
16 15 14 13 13 13 13 13 13 13 13 13 13 12 12 12 12 12 12 13 14 14 15 16 17 20 22 24 25 24 22 19 18 20 19 17 17 16 16 15 15 15 14 13 13 13 13 13 12 12 11 12 12 11 11 12 12 12 12 12 10 10 10 10 11 11 13 14 14 18 19 18 21 25 28 32 29 25 30 38 40 40 38 34 30 27 30 40
18 17 16 15 14 14 14 13 13 13 13 14 14 14 13 13 12 12 12 13 13 14 15 15 16 18 20 22 23 21 19 18 19 20 20 18 17 16 16 16 15 15 14 13 13 13 12 12 13 13 13 14 13 13 13 13 14 13 13 13 11 11 11 10 11 10 11 15 15 20 26 23 18 18 19 24 28 27 29 34 37 38 38 36 31 26 32 43
21 19 18 17 17 16 16 15 14 13 13 13 14 15 15 14 13 12 12 12 13 14 15 15 16 17 19 20 20 19 18 19 20 21 20 18 17 16 16 16 15 14 14 13 13 14 14 14 15 15 15 14 13 13 14 13 13 15 14 13 13 12 12 11 11 10 10 12 12 21 33 28 17 14 12 13 18 22 26 28 31 34 34 33 30 27 32 35
25 22 20 19 19 18 17 16 15 13 13 13 14 15 15 15 14 13 13 13 13 14 14 15 15 16 18 18 18 18 19 19 20 20 20 19 18 18 17 16 15 15 14 14 15 15 15 15 15 15 14 13 13 13 13 13 14 15 14 14 13 13 14 13 12 10 11 11 11 23 34 26 16 12 9 9 9 11 16 19 22 25 27 31 35 38 34 31
27 26 23 21 21 19 18 17 15 14 13 13 14 15 15 15 15 15 14 14 14 14 14 14 15 16 17 18 18 20 20 20 21 21 21 20 19 18 17 15 16 16 16 16 18 17 17 16 16 16 16 15 15 15 14 15 15 15 14 15 15 15 15 15 14 12 11 11 12 21 27 18 14 13 9 8 7 7 9 10 12 14 16 21 28 37 37 33
26 27 27 25 23 21 20 18 16 14 13 14 15 15 16 16 16 16 16 15 14 14 15 15 15 16 17 18 20 20 20 20 22 22 21 20 19 18 17 17 17 18 18 20 21 19 18 18 18 19 19 17 16 15 14 14 14 14 15 17 17 16 16 16 16 15 12 11 12 17 19 15 13 13 10 9 8 7 7 6 7 8 9 12 14 21 30 34
25 26 28 28 26 23 22 20 17 15 14 15 15 16 17 17 17 17 16 16 16 15 16 16 16 17 18 19 19 19 20 21 22 21 21 21 20 19 19 20 20 19 21 23 22 20 18 17 19 20 20 19 19 18 17 16 16 17 17 17 17 16 16 16 15 15 12 11 13 16 17 16 15 13 11 11 9 7 7 6 9 11 10 11 11 11 18 28
26 25 26 27 29 27 24 22 19 16 14 15 16 17 18 18 18 18 18 17 16 16 17 17 17 18 19 19 20 21 22 22 22 20 21 21 20 21 23 22 21 22 24 25 24 23 22 21 24 27 26 24 24 22 21 20 20 21 19 16 16 16 16 17 16 15 13 11 12 16 18 16 15 13 11 11 10 9 7 6 12 20 20 18 19 15 13 17
27 26 25 25 27 29 27 24 21 17 15 15 16 18 19 19 19 19 20 20 18 17 17 17 19 20 20 21 21 22 22 21 21 20 21 22 22 24 25 24 25 26 26 27 28 28 26 25 28 30 29 26 25 24 23 23 22 22 21 18 18 18 17 18 18 16 14 12 12 16 18 16 15 13 11 10 10 9 8 6 15 33 42 40 37 30 21 19
27 27 25 25 25 28 28 26 23 18 15 15 17 19 20 19 19 19 19 20 20 19 18 18 19 20 20 22 21 21 21 21 21 20 21 23 25 26 25 26 29 28 28 30 31 29 27 27 28 29 29 25 24 25 25 24 23 23 25 22 21 23 21 19 18 16 14 13 14 17 17 16 15 13 11 11 10 8 8 7 13 36 56 61 60 57 48 39
28 27 26 25 25 27 28 28 26 20 16 16 18 20 22 20 20 21 20 20 20 21 20 20 20 20 21 22 22 23 23 23 23 23 23 24 25 26 27 29 29 30 32 33 30 28 29 31 30 29 28 25 24 26 27 25 24 25 26 24 25 27 24 18 16 15 14 13 15 18 18 16 15 14 11 11 10 9 11 11 10 24 46 59 69 79 78 69
28 27 26 26 26 26 27 28 28 23 17 16 19 21 23 23 23 24 22 21 21 21 23 22 21 21 21 22 24 26 26 26 25 24 24 25 26 28 29 31 32 33 33 31 29 30 34 34 31 29 28 26 25 25 26 25 24 24 24 23 25 26 21 18 17 16 14 13 14 16 17 17 16 15 12 10 11 10 14 21 20 19 29 43 62 84 96 95
28 28 27 26 27 26 27 29 30 25 18 17 20 21 23 23 23 24 24 25 24 23 24 26 25 23 22 23 25 27 27 26 25 25 26 27 29 30 31 31 33 34 30 29 31 33 35 34 29 28 28 28 27 26 27 27 25 25 26 25 25 24 21 19 19 17 14 14 14 14 16 17 16 15 13 11 10 10 16 27 29 23 23 31 49 74 93 101
26 28 28 27 28 28 28 29 32 28 20 17 20 21 22 22 21 23 27 31 31 28 27 28 30 29 27 27 26 26 26 27 28 28 28 30 31 31 32 33 34 33 30 31 33 33 33 31 27 27 29 28 26 26 29 32 30 28 29 29 26 24 23 21 20 18 16 14 13 14 16 16 15 15 15 13 12 11 13 18 22 22 22 28 41 58 75 91
24 25 27 28 28 29 29 30 34 32 22 18 19 20 22 23 23 25 30 34 35 32 28 29 33 35 34 32 30 27 27 30 30 30 30 33 34 33 34 36 35 33 32 33 34 33 32 28 26 26 27 26 25 25 27 30 30 30 30 29 26 24 23 23 22 21 18 15 13 14 15 16 16 15 16 14 13 15 14 13 17 20 20 23 31 39 51 66
24 24 25 27 29 31 30 31 37 36 26 20 21 21 23 24 25 28 29 30 32 33 33 31 32 36 36 35 33 31 32 33 31 32 36 36 35 36 38 38 36 34 34 34 35 34 31 28 26 26 26 27 27 26 25 26 26 27 27 27 26 26 26 26 26 24 20 15 14 15 14 16 18 18 17 16 15 18 18 14 17 20 19 19 21 26 31 40
26 25 24 26 28 32 33 33 38 38 28 21 22 24 26 25 25 27 32 35 34 32 35 37 35 38 42 43 42 39 36 33 33 36 39 37 37 39 38 38 39 36 34 35 36 34 31 28 26 26 28 28 26 26 25 25 27 27 26 25 25 25 27 26 25 22 19 16 14 14 14 17 21 20 18 19 20 21 19 16 18 19 18 19 24 32 39 45
28 27 26 25 27 32 35 34 35 37 31 22 20 22 24 27 27 27 32 42 43 38 39 43 40 36 42 48 52 49 41 35 37 41 39 37 38 40 39 41 41 38 36 38 37 34 31 28 27 27 29 28 26 25 25 25 27 26 25 26 26 26 26 26 24 21 20 16 14 16 15 15 18 19 18 18 19 20 18 16 17 21 21 21 26 39 53 64
30 29 27 26 27 30 35 34 34 41 38 27 22 22 22 28 32 30 31 38 45 48 52 54 45 37 42 50 51 49 46 45 48 47 40 38 38 40 43 45 43 42 42 40 36 33 30 29 28 28 29 28 25 25 26 26 26 25 25 27 27 27 27 27 25 24 22 18 15 16 16 15 17 19 22 22 16 14 16 15 15 21 24 22 28 46 65 78
35 32 29 28 27 28 34 38 42 50 45 30 27 28 25 27 32 33 34 35 39 48 57 60 56 50 50 50 48 48 50 51 52 46 41 42 43 44 48 48 47 48 45 39 36 34 31 31 31 31 32 32 30 27 27 27 26 25 26 26 27 28 27 27 26 24 22 19 17 16 15 16 18 21 28 31 20 12 16 17 16 19 22 25 42 70 87 89
39 35 33 32 30 29 35 41 44 48 45 33 29 30 28 29 32 33 34 38 42 46 49 52 58 62 60 50 46 49 49 47 48 47 48 50 50 52 55 54 52 49 44 39 37 35 33 34 35 37 37 36 35 32 30 31 29 26 24 24 26 27 26 26 26 23 21 20 19 17 16 16 16 19 29 35 26 15 16 20 18 18 23 35 64 92 100 90
41 37 38 37 33 30 35 41 41 40 40 35 29 29 29 30 33 34 34 42 50 51 47 41 44 57 65 60 51 46 45 49 56 60 62 61 60 62 60 55 51 47 42 39 38 36 37 38 38 38 35 34 35 34 33 35 32 28 27 25 25 26 26 26 24 22 22 21 18 18 16 14 14 15 24 32 26 14 15 21 21 21 26 39 64 86 93 86
42 39 42 43 38 32 32 39 44 43 44 41 33 29 30 30 32 34 38 46 52 51 48 44 41 45 52 55 53 49 53 61 68 71 71 65 61 60 56 50 47 44 40 38 37 36 38 39 39 37 35 35 36 34 35 38 36 32 30 26 24 24 24 24 23 22 23 21 19 18 16 14 16 16 20 27 23 12 13 19 21 24 29 36 48 63 78 80
45 43 47 50 46 37 32 38 47 48 49 49 40 30 27 28 30 32 37 43 48 49 47 45 47 50 51 53 57 61 68 73 76 81 81 68 58 57 59 58 54 49 44 39 37 38 38 38 39 41 41 39 39 40 41 40 37 33 30 27 27 26 24 23 24 24 23 22 21 20 18 16 18 16 17 22 21 14 13 18 23 27 29 32 43 59 74 74
47 49 53 55 52 43 36 37 44 48 49 48 43 34 26 25 27 29 32 35 42 51 51 47 50 56 60 63 65 69 76 81 84 85 79 69 62 63 71 69 57 53 49 39 35 38 39 41 44 44 43 42 42 42 39 37 36 34 31 28 26 25 25 25 26 28 26 24 24 22 20 20 20 17 15 18 21 19 16 17 23 27 26 30 45 67 79 68
44 54 58 57 53 47 43 38 39 45 49 49 48 43 33 27 27 29 30 35 44 52 52 51 55 60 64 68 70 75 79 80 77 69 64 67 64 63 72 69 56 62 71 62 51 47 48 57 60 52 45 45 43 39 37 36 36 33 30 27 24 24 25 24 25 27 28 26 25 24 23 23 24 22 18 17 21 22 18 15 16 19 23 25 35 58 71 63
Wind_Speed
31 31 31 30 30 29 29 28 27 27 26 25 24 25 25 27 27 26 23 20 19 19 19 18 17 17 17 17 17 17 17 17 17 17 17 17 18 18 18 18 17 16 16 16 17 18 20 22 23 24 25 27 28 29 31 32 32 32 32 32 32 32 32 32 31 29 30 32 32 33 31 27 28 29 27 26 22 20 19 16 13 12 11 10 9 9 11 8
33 32 32 32 31 31 30 29 28 28 27 26 26 25 26 27 28 27 24 21 20 20 20 20 19 18 18 18 18 18 18 18 18 18 18 18 18 19 19 19 19 18 17 16 16 17 18 21 22 22 24 26 27 28 30 31 32 32 33 34 33 32 32 33 33 31 31 32 32 33 33 30 30 30 28 26 24 22 20 18 15 13 12 12 10 10 14 11
34 34 34 33 32 32 31 31 30 29 29 28 27 27 28 28 28 27 25 23 22 21 21 21 21 20 19 19 20 19 18 19 19 19 19 19 19 19 19 20 20 19 19 17 17 17 17 19 21 22 23 25 26 28 30 31 32 33 34 35 34 32 32 33 34 33 31 31 32 33 34 33 31 30 29 27 26 25 23 21 17 15 15 13 10 13 17 12
36 35 35 35 34 33 32 32 31 31 31 30 30 29 30 30 29 28 26 25 23 22 22 21 22 22 21 21 21 21 20 20 19 19 19 19 20 20 20 20 20 20 20 19 18 17 17 18 20 21 22 25 26 28 30 31 32 33 34 35 35 32 32 32 34 34 33 31 32 34 35 35 33 31 30 29 28 26 25 23 20 18 18 16 14 16 17 12
37 37 36 36 35 34 33 33 33 32 32 32 32 32 31 31 30 28 27 26 25 24 23 22 22 23 23 22 23 22 21 21 21 20 20 20 20 21 21 21 21 21 21 20 19 19 18 18 19 20 22 24 26 28 30 32 33 34 34 35 35 32 32 32 33 33 34 33 32 33 35 35 33 31 29 27 26 26 24 24 23 21 18 17 18 18 16 14
39 38 38 37 37 35 35 34 34 34 34 34 34 33 33 32 31 29 28 28 27 26 24 23 23 23 24 24 24 24 23 22 22 21 21 21 21 21 22 22 21 21 22 21 20 20 19 18 18 19 21 23 25 27 29 31 33 34 35 35 35 33 33 33 32 33 34 34 32 32 34 34 32 30 28 26 24 24 24 24 24 24 21 18 19 19 15 16
40 39 39 39 38 37 37 36 36 35 35 36 35 34 33 32 31 30 29 29 28 26 25 24 24 24 24 24 25 24 24 24 23 22 22 22 22 22 23 23 22 22 22 22 22 21 20 20 19 19 20 22 24 27 30 32 33 34 35 36 35 33 33 33 33 33 35 36 34 32 33 33 31 30 28 26 24 23 23 24 24 25 24 20 20 20 18 20
41 41 40 40 40 39 38 38 37 37 37 37 36 35 34 33 32 31 30 29 28 27 26 25 24 24 25 25 26 25 25 25 24 23 23 23 23 22 23 23 23 23 24 23 23 21 21 21 20 20 20 22 23 26 29 32 33 34 36 37 37 34 33 34 33 33 34 35 35 33 33 32 31 29 28 27 24 24 24 25 26 26 26 22 21 21 22 25
43 43 42 42 41 41 40 39 39 39 38 38 37 36 34 34 33 32 31 29 28 27 26 26 25 25 26 27 27 26 26 25 25 24 23 24 24 23 23 24 24 25 25 24 24 22 22 22 22 22 21 22 24 25 29 32 33 34 36 38 38 36 35 35 35 34 33 34 35 34 33 32 32 30 29 27 24 25 24 23 26 27 25 23 22 23 24 26
46 45 44 44 43 42 42 41 41 40 39 38 37 36 35 35 34 33 32 30 28 28 27 27 26 26 27 29 28 26 27 26 25 25 24 24 24 23 23 24 25 26 26 26 25 24 23 23 23 23 23 22 24 25 28 31 33 33 35 37 37 37 36 36 36 35 34 34 34 34 33 31 32 31 30 27 25 26 25 21 24 26 25 22 21 23 25 26
47 47 46 45 45 44 43 43 42 41 40 39 38 37 37 36 36 35 33 31 29 29 28 28 28 28 28 30 29 27 28 26 25 26 25 24 24 23 23 24 25 26 27 27 26 24 23 23 24 24 24 23 24 25 28 31 33 34 34 35 36 36 36 36 35 35 35 34 34 34 32 31 31 31 30 28 26 27 27 24 23 23 24 23 22 22 25 26
48 48 47 47 46 45 44 43 43 42 41 40 39 39 39 38 37 36 35 33 32 30 30 30 30 30 30 31 31 28 28 27 26 26 25 24 23 23 23 24 25 26 27 27 26 25 24 24 25 26 26 25 24 26 28 30 33 33 34 35 35 35 36 35 34 34 34 34 35 34 33 32 32 32 30 29 27 28 29 28 26 23 22 24 24 23 24 26
48 48 48 48 47 46 45 44 44 43 42 41 41 40 40 39 38 37 37 36 34 33 32 32 32 32 31 32 32 29 27 28 27 27 25 24 23 23 23 24 25 26 27 27 26 25 26 25 25 27 27 26 25 26 27 29 31 32 34 34 34 34 34 34 33 33 33 33 34 35 34 33 33 33 32 30 28 28 30 31 30 25 21 23 25 24 24 26
49 49 50 50 49 48 47 46 46 46 45 44 43 43 42 41 40 40 40 39 37 35 34 34 34 34 32 33 34 29 27 29 28 26 25 23 22 22 23 24 24 26 27 27 26 26 26 25 26 28 28 27 27 26 27 28 30 32 33 33 34 34 34 34 35 34 33 32 33 34 34 33 33 34 34 32 30 30 30 33 35 30 25 25 25 25 24 26
51 51 51 51 51 50 48 48 48 47 47 46 46 46 45 45 43 43 42 41 39 37 36 36 35 35 34 35 34 29 28 31 28 24 23 23 23 22 23 23 24 25 26 27 26 25 25 25 27 29 28 27 26 26 27 28 29 31 32 32 33 34 33 33 35 35 35 34 33 33 33 33 33 34 34 33 31 31 31 34 39 36 31 29 27 25 26 26
52 52 52 51 50 49 48 48 48 47 47 46 46 47 46 46 45 44 43 42 40 38 37 36 36 35 34 35 34 30 30 30 26 23 23 24 23 22 22 22 23 24 25 26 25 24 25 26 28 28 27 26 27 27 27 27 29 30 30 31 32 32 32 32 33 35 35 35 34 33 32 33 33 33 35 34 32 31 31 33 39 40 36 34 31 28 26 26
50 50 49 49 48 47 47 48 48 47 47 46 46 46 46 45 44 43 42 41 39 38 37 36 36 35 34 35 33 31 30 28 24 23 24 23 22 21 21 21 22 23 24 25 24 24 25 27 28 27 27 27 28 27 28 28 28 29 30 30 30 30 31 31 32 34 34 34 34 33 33 33 33 33 35 36 35 33 33 33 36 39 39 38 36 33 29 27
46 46 46 45 45 45 46 47 47 46 46 46 46 46 45 44 43 42 41 39 38 37 37 37 35 34 34 33 32 32 30 26 24 24 24 23 21 20 20 20 22 23 24 24 23 24 26 27 27 27 27 27 27 28 28 28 28 28 29 30 29 29 29 30 31 32 33 33 33 33 33 33 33 34 35 37 37 37 37 36 35 37 39 39 39 37 34 30
43 43 43 42 42 43 45 45 45 45 44 45 45 46 45 43 43 42 41 39 38 37 37 36 35 34 33 33 33 31 27 25 25 24 23 21 19 19 19 20 21 22 22 22 22 24 25 26 26 28 28 28 28 28 27 28 28 28 28 29 29 28 28 28 30 31 31 31 31 32 33 34 33 34 35 37 38 38 38 37 37 38 39 39 39 39 37 32
41 41 41 41 41 43 44 44 44 44 44 44 44 44 43 42 42 41 40 39 38 38 37 36 35 34 34 34 32 28 26 26 25 23 22 20 18 18 18 19 20 20 21 21 21 23 24 24 27 28 28 28 27 27 27 28 28 28 28 28 29 29 29 28 29 31 31 30 30 30 31 32 33 33 35 37 37 37 37 37 37 37 38 39 39 40 37 34
41 40 40 39 41 42 42 43 43 43 44 44 44 43 42 41 41 39 38 37 37 37 36 36 35 34 35 34 30 26 27 27 24 22 22 19 19 18 17 18 18 19 20 20 21 23 23 24 27 27 26 26 26 26 28 29 29 28 28 29 29 29 29 29 29 30 30 30 30 30 30 30 31 33 36 37 37 37 36 37 37 36 36 38 39 40 38 36
38 36 35 35 37 38 38 39 40 41 42 43 43 42 41 41 39 38 37 36 36 35 35 35 35 35 35 31 28 28 29 26 23 23 22 20 19 17 17 18 18 19 19 20 22 23 23 24 25 25 25 26 27 28 29 29 30 29 29 30 30 30 29 29 29 30 30 30 31 30 29 28 29 32 36 37 37 36 35 35 37 36 35 36 36 37 37 37
31 30 31 32 33 34 35 35 36 38 39 40 41 41 41 40 39 37 36 35 35 34 34 34 34 35 32 29 29 30 28 25 24 24 22 19 19 18 18 18 18 19 20 22 23 23 22 23 24 25 26 28 29 29 30 31 31 31 31 32 31 30 30 30 29 30 30 30 30 29 28 27 27 30 34 37 37 36 35 34 35 37 36 35 34 33 32 33
26 27 28 29 30 31 31 32 33 35 36 36 37 38 39 40 38 37 36 35 34 33 33 34 34 32 30 30 30 28 27 26 25 24 21 19 19 19 18 18 19 19 21 22 22 21 21 22 25 26 28 29 30 31 31 32 33 33 33 33 33 32 30 30 29 31 32 32 31 29 27 27 28 29 32 35 35 35 35 34 34 36 37 36 34 32 30 30
22 23 24 24 24 24 25 26 28 30 31 32 34 35 36 38 38 37 35 34 33 33 33 33 32 30 30 30 29 27 27 26 25 24 21 21 21 19 19 19 19 19 20 21 20 19 21 23 25 26 28 30 32 32 32 32 34 34 35 35 34 33 31 30 30 31 33 34 33 31 30 30 30 30 31 33 34 34 34 33 33 35 37 37 36 34 32 31
20 20 20 20 19 19 19 20 21 23 25 28 30 31 33 35 36 36 36 34 34 33 33 32 31 29 29 29 28 27 26 26 25 24 23 23 21 19 19 19 18 18 19 20 19 19 21 23 24 26 29 30 31 30 30 32 34 35 35 36 35 34 33 32 31 30 32 34 33 32 32 32 32 32 32 32 33 33 34 33 33 34 35 37 36 36 35 34
19 19 18 18 17 17 16 17 17 18 20 22 24 26 29 31 34 35 35 35 34 34 33 32 30 29 29 28 27 26 26 27 26 25 24 22 20 20 20 19 19 19 20 21 20 20 22 23 26 27 27 27 27 28 28 30 32 34 36 37 37 35 34 34 32 31 32 33 33 31 32 34 33 33 33 33 33 33 34 34 34 34 34 35 36 36 37 37
18 18 17 17 17 16 16 16 16 16 16 17 19 22 25 28 31 34 35 36 35 34 32 31 30 29 28 28 27 27 27 26 25 25 23 21 20 21 20 19 20 20 20 20 20 21 22 22 22 21 20 23 24 24 25 28 29 32 35 37 37 36 36 35 34 32 32 33 32 30 31 33 34 34 34 33 33 33 33 34 35 35 35 34 35 35 36 38
19 18 17 17 16 16 15 15 15 15 15 15 16 19 22 25 29 32 35 36 35 34 33 31 30 29 29 28 28 27 26 27 27 26 23 21 21 20 20 21 20 19 19 18 18 20 20 19 18 18 21 24 23 22 25 26 27 30 34 36 36 37 37 37 35 34 32 32 31 29 29 31 32 34 35 33 33 33 33 34 35 36 36 35 34 35 36 37
19 18 17 17 16 15 15 15 15 15 15 14 15 16 19 23 26 30 33 35 35 35 33 32 31 30 29 28 26 26 28 28 28 24 21 20 21 20 21 21 19 18 18 17 17 18 18 20 20 20 20 20 19 21 22 22 24 29 32 32 33 35 36 37 37 35 34 32 30 28 28 29 30 33 34 33 32 32 33 34 36 37 37 36 35 35 36 37
19 18 18 17 16 16 15 15 15 15 14 13 13 14 17 20 23 27 31 34 35 35 34 32 31 30 29 27 27 28 29 28 26 23 21 22 22 21 21 20 18 17 16 15 16 17 19 20 18 17 17 18 18 20 20 20 23 26 26 27 30 33 35 37 38 37 36 33 29 28 28 29 30 32 33 32 31 31 31 33 35 36 37 36 36 36 36 37
19 19 18 17 17 16 16 15 16 15 14 12 12 12 14 17 20 24 29 32 35 35 34 33 32 30 29 29 30 31 29 28 27 25 23 23 23 22 20 18 17 17 16 15 17 19 21 19 18 18 19 19 19 19 18 19 20 21 22 25 29 32 34 37 38 38 38 34 30 28 29 30 30 32 32 31 31 30 30 30 31 33 34 35 36 37 37 38
20 19 18 18 17 17 16 16 16 15 13 11 10 10 12 15 18 22 26 31 34 35 35 34 32 31 30 31 31 30 29 28 27 25 24 24 23 21 19 19 19 18 17 17 19 21 19 16 15 16 17 17 17 18 17 17 17 17 20 24 27 30 33 35 37 39 38 35 30 28 29 30 29 32 32 30 31 31 28 28 28 29 31 31 33 35 37 38
20 20 19 18 18 17 17 16 16 15 13 10 9 9 10 14 17 20 23 28 33 35 35 34 33 32 32 31 30 30 29 29 27 25 24 24 23 20 20 21 20 18 18 19 19 19 17 13 11 13 16 17 17 17 17 17 17 17 19 21 23 25 29 31 34 37 38 34 30 29 30 30 30 33 33 30 31 30 28 27 27 28 29 29 30 32 34 37
21 21 20 18 18 17 17 16 15 15 13 10 8 7 10 14 17 20 23 26 30 34 36 36 35 34 33 32 32 31 31 29 28 26 25 24 23 22 23 22 20 20 19 18 18 19 18 15 13 15 17 18 18 17 18 19 18 17 19 19 18 21 24 27 31 35 36 34 30 30 31 31 31 35 33 30 31 30 28 27 27 27 28 29 29 30 31 34
22 22 21 19 18 17 17 16 14 14 12 10 7 6 9 13 16 20 24 27 29 32 34 35 35 35 34 33 33 32 30 29 27 26 25 24 24 24 24 23 22 21 19 18 20 21 19 17 17 18 20 20 18 16 17 18 17 17 20 19 18 20 24 27 31 34 36 33 31 30 31 31 33 35 33 31 32 30 28 28 28 29 30 29 30 30 30 32
22 22 21 20 18 17 16 15 14 13 12 9 6 5 8 11 13 17 21 26 29 30 32 34 35 35 34 33 32 31 29 28 27 26 26 26 26 25 24 23 23 21 20 22 23 20 17 18 18 19 21 20 17 16 17 19 19 20 21 20 19 22 26 27 28 31 32 30 30 30 30 30 33 35 34 32 31 30 28 29 29 30 31 31 31 30 30 30
22 22 21 21 19 17 16 14 13 12 10 7 5 5 8 11 15 17 19 22 26 29 30 32 33 34 34 33 32 30 29 29 28 28 27 26 26 25 24 24 23 22 23 23 21 18 18 20 20 20 20 19 17 18 19 21 21 20 20 21 23 26 26 25 25 28 28 26 28 29 29 30 32 35 34 31 30 29 28 29 30 30 31 32 32 31 30 30
22 22 22 21 20 18 16 14 12 11 9 6 5 8 11 14 17 18 19 20 23 27 30 30 30 31 31 31 31 31 30 30 29 27 27 26 26 25 25 24 23 23 23 20 19 19 20 21 21 19 18 18 18 18 19 21 22 19 19 22 24 24 24 24 26 26 24 24 25 26 27 29 31 33 33 30 28 29 29 30 31 31 30 31 33 33 32 31
20 21 21 21 20 18 16 14 11 10 9 7 7 9 11 14 17 19 21 22 25 29 31 31 29 28 28 29 31 31 30 29 28 27 27 26 26 25 24 23 23 22 20 18 19 19 20 21 20 18 17 19 20 19 19 21 21 19 19 21 22 22 24 25 25 24 24 24 22 21 24 28 30 31 32 29 28 29 30 31 31 31 31 31 32 33 34 33
19 20 20 21 20 19 16 13 11 10 9 8 7 9 11 14 17 21 25 28 30 30 31 32 31 28 28 29 29 30 29 29 29 28 27 26 25 24 23 22 21 20 19 18 18 19 19 20 19 17 18 19 19 19 19 20 21 19 19 20 20 21 23 24 24 25 26 23 19 19 22 25 28 30 31 29 28 29 30 30 31 31 31 31 31 32 33 33
18 19 20 20 20 19 17 14 11 10 8 6 6 7 11 16 19 22 25 27 29 29 28 29 30 29 28 28 28 28 29 29 28 27 26 26 25 23 22 21 20 19 18 18 18 18 18 18 17 17 17 17 18 19 19 20 20 19 19 19 19 20 22 25 26 27 26 22 18 19 21 24 26 29 31 30 29 29 30 30 30 31 31 30 30 30 30 31
18 18 19 19 20 19 18 15 13 12 11 9 8 10 13 17 20 23 23 23 23 25 26 26 29 30 29 27 26 27 29 29 27 27 26 25 23 22 21 20 18 18 18 17 17 17 17 17 16 15 16 17 18 18 18 18 18 19 20 19 20 21 23 27 28 27 25 21 16 16 20 24 26 29 30 30 29 29 30 30 30 31 31 30 29 28 28 28
17 18 19 20 20 20 19 19 16 14 13 10 9 13 16 18 20 22 23 23 22 23 25 26 29 31 31 29 28 28 27 26 25 25 25 24 22 21 19 18 17 17 16 16 16 17 17 16 15 15 16 17 18 17 17 17 18 20 20 19 19 20 21 25 27 26 25 20 15 15 20 24 26 27 28 29 30 31 32 32 30 30 31 30 29 29 27 26
16 17 19 20 21 21 21 19 16 13 13 9 7 11 16 20 22 23 23 25 26 26 27 27 27 28 28 29 29 28 26 24 23 24 23 22 21 19 18 17 16 15 15 15 16 16 16 15 14 14 15 16 16 15 15 16 18 19 19 18 18 18 20 23 26 27 25 21 18 18 19 22 24 26 25 28 31 32 32 33 31 31 31 29 28 28 26 24
16 17 17 19 21 22 21 19 16 15 16 12 9 13 17 21 24 25 25 26 27 29 30 30 27 27 28 29 28 27 26 25 24 23 22 20 19 18 17 16 15 15 16 16 16 16 15 14 13 13 14 15 15 15 15 15 17 18 18 18 18 18 20 22 26 27 24 21 20 19 19 22 24 25 24 27 32 32 32 34 33 31 30 28 27 26 25 23
16 16 15 17 20 21 22 22 21 21 19 15 14 18 20 21 24 25 26 26 27 30 32 33 31 29 28 28 27 27 26 24 23 21 20 19 19 18 17 16 15 15 16 16 16 15 14 13 12 13 14 14 14 14 14 14 17 18 18 18 17 18 19 21 24 25 22 22 20 18 19 22 24 26 28 29 33 34 33 33 33 31 29 28 28 27 26 24
18 16 14 15 19 22 23 24 24 23 21 18 17 19 21 22 25 26 26 28 29 31 32 31 32 32 29 27 26 25 23 21 21 20 19 20 19 18 18 17 16 16 17 17 16 14 13 12 12 13 13 12 13 14 13 14 17 17 17 17 18 18 19 20 21 21 20 21 19 18 20 20 19 24 29 33 35 35 33 33 33 32 29 29 30 29 28 26
20 16 13 14 16 20 23 24 24 23 21 19 19 21 23 25 27 28 29 30 32 32 31 29 29 30 29 27 25 22 20 20 20 19 20 21 20 19 18 17 16 17 17 17 15 14 13 13 12 12 12 11 12 13 13 14 16 17 17 17 17 17 17 17 16 16 18 19 18 17 18 16 15 20 28 34 37 36 34 34 34 33 31 31 31 30 29 27
20 16 13 13 15 18 21 24 26 25 23 22 22 23 24 26 28 29 31 33 33 31 30 28 27 26 25 24 22 21 21 21 21 20 20 21 20 19 17 15 15 15 16 16 15 14 14 12 11 12 12 11 10 10 11 13 15 16 17 16 16 16 15 13 13 14 16 16 16 16 16 15 16 18 23 30 36 36 34 34 34 33 33 32 31 29 29 28
21 18 16 16 16 17 18 23 27 27 26 26 24 22 22 23 26 29 31 32 32 30 29 27 27 26 24 23 23 23 22 23 23 24 23 22 21 19 16 16 15 15 15 16 16 15 14 12 12 13 12 10 10 11 12 13 14 15 16 16 15 14 14 12 11 12 14 16 16 17 16 15 16 17 18 23 32 36 35 34 34 34 34 33 32 30 30 29
22 20 19 19 18 16 16 20 26 28 27 26 23 22 21 22 24 27 28 29 29 30 29 28 27 26 25 24 24 24 24 26 27 27 25 23 21 18 17 17 16 15 15 15 15 15 15 13 12 12 11 11 12 12 11 11 12 14 15 14 13 14 14 13 11 12 14 16 16 18 18 17 17 17 17 19 27 35 37 36 35 34 34 34 34 33 32 31
Wind_Direction
284 284 285 285 286 286 285 285 285 285 285 287 289 292 295 299 303 305 303 299 296 292 286 281 277 276 277 277 275 272 270 269 267 266 264 261 259 258 259 258 256 251 246 238 234 235 236 234 232 229 227 226 225 225 225 225 224 223 222 221 222 223 222 222 222 221 219 217 215 213 215 220 227 234 238 235 231 229 230 233 233 228 220 207 195 211 239 247
282 283 283 284 284 284 283 283 283 283 283 284 286 288 292 296 299 301 299 295 293 291 287 283 279 275 275 276 275 273 272 270 267 265 264 261 259 257 257 257 257 254 250 244 237 234 235 235 231 228 226 225 224 224 224 224 222 221 220 220 220 222 222 222 222 222 219 219 218 215 215 219 226 231 235 233 229 228 230 230 230 226 216 207 199 213 233 235
280 281 282 282 283 282 282 281 281 281 282 283 284 286 289 292 295 296 294 291 290 289 285 282 280 277 275 275 276 275 274 272 269 267 264 261 259 257 255 255 255 255 253 249 243 236 234 235 232 227 225 225 224 224 224 223 220 219 220 220 219 220 222 222 222 222 220 219 220 218 216 219 226 231 234 234 232 234 233 229 229 223 214 207 198 216 229 231
278 279 280 280 280 280 279 279 279 280 280 282 283 285 288 289 291 291 290 289 288 286 283 280 279 278 276 276 276 275 275 275 272 269 265 262 259 256 254 253 253 254 253 251 248 242 235 233 232 228 225 224 223 223 224 223 220 219 220 221 220 220 223 223 222 221 220 220 221 221 220 223 230 236 238 238 237 236 234 230 227 221 219 212 200 218 225 222
277 277 277 278 278 277 277 276 277 277 279 281 283 285 286 287 287 287 287 287 286 285 282 278 276 276 276 276 276 275 275 276 275 272 267 263 260 256 253 251 250 251 252 251 250 247 241 234 231 229 225 224 223 222 224 224 221 220 221 222 221 221 224 223 223 223 222 222 224 223 223 226 232 236 239 240 240 237 233 229 225 218 220 220 206 213 219 209
275 275 275 275 275 275 275 274 274 275 277 279 281 282 283 283 284 284 285 285 284 282 280 276 274 274 274 274 274 275 276 277 276 275 271 266 261 257 253 250 248 247 249 250 249 248 246 240 233 228 226 225 225 224 224 224 223 221 222 223 223 223 225 225 225 226 225 224 225 226 225 227 230 235 239 241 242 240 234 227 224 218 216 224 216 211 217 216
273 273 273 274 274 274 273 273 273 273 275 276 278 279 279 279 280 281 283 283 282 279 278 275 272 271 272 272 273 274 277 277 277 277 275 270 263 257 253 249 246 244 245 246 246 246 246 245 238 230 226 225 226 226 226 225 223 223 223 223 224 225 226 227 228 229 228 225 225 227 227 228 230 235 239 241 242 242 239 229 223 219 218 221 222 217 214 219
271 271 271 271 271 271 271 271 271 271 273 274 275 275 275 275 276 278 281 282 280 277 275 273 271 269 269 270 271 274 277 278 278 278 276 272 266 259 253 248 244 242 242 242 243 244 244 245 242 234 226 224 224 226 228 226 223 224 224 223 225 227 228 228 229 231 230 228 227 228 229 229 231 235 238 239 238 238 239 234 225 219 221 220 218 220 215 217
269 270 270 270 270 269 269 269 269 270 271 271 272 271 271 271 273 276 278 279 279 276 273 271 269 268 268 269 270 273 276 278 279 279 277 274 268 261 254 248 244 240 239 240 240 241 241 243 242 238 230 224 222 225 228 228 225 225 225 224 226 228 228 229 231 233 233 231 229 230 230 230 231 234 236 235 231 231 232 233 231 221 221 224 219 218 219 222
268 268 268 268 268 268 268 268 268 269 269 269 269 268 268 269 270 273 275 276 277 275 271 269 267 266 268 268 269 273 275 277 280 279 277 274 269 263 256 248 243 239 237 237 237 238 239 240 240 239 234 227 223 224 227 228 227 226 226 227 227 228 228 229 232 234 235 235 232 231 232 231 231 232 233 231 226 225 222 222 232 229 222 225 226 222 221 224
268 268 268 268 268 268 268 268 268 268 268 267 267 266 266 267 269 271 271 272 274 273 270 268 266 265 267 268 269 271 274 277 280 279 277 274 270 264 257 249 243 239 236 235 235 236 237 239 239 238 236 230 226 225 226 228 227 227 228 229 230 230 229 230 232 232 233 234 234 233 232 230 229 230 230 228 223 221 216 212 223 232 228 226 230 231 229 228
268 268 268 268 268 268 268 268 268 268 267 266 266 265 265 266 267 268 268 269 271 271 269 267 266 265 265 268 269 269 273 277 279 279 276 273 268 262 256 249 243 238 236 234 233 234 235 237 237 237 235 232 228 227 227 228 228 228 229 230 231 233 233 233 232 231 231 231 231 233 234 231 227 228 229 226 221 218 215 212 216 226 231 231 231 234 237 237
267 267 268 269 269 269 269 268 268 267 266 265 265 264 264 265 265 266 266 268 269 268 266 265 264 264 264 267 268 268 273 277 277 277 276 273 268 261 255 248 242 238 235 232 230 231 234 235 236 236 234 232 229 228 227 228 229 228 229 231 232 233 235 235 235 234 234 231 228 229 232 233 229 227 229 226 221 217 214 212 213 217 225 232 235 234 237 241
266 267 267 268 269 269 269 269 269 268 267 265 264 264 263 263 264 265 266 267 267 266 264 262 262 262 263 265 266 267 272 274 273 274 275 274 268 261 254 247 241 238 234 231 229 230 233 234 235 235 233 231 230 229 229 229 229 229 229 232 234 234 235 237 237 236 236 234 230 229 230 232 233 230 229 227 221 217 215 214 213 212 215 226 236 240 240 242
266 267 267 268 269 269 269 269 269 268 267 266 264 263 263 263 263 263 264 265 265 264 262 260 260 260 261 263 264 266 269 270 270 274 276 272 265 257 250 244 240 237 234 231 228 228 230 232 232 233 232 231 231 231 231 230 231 230 229 231 234 235 236 237 236 235 235 235 233 232 231 230 231 232 230 228 224 219 216 216 217 215 213 219 228 236 243 246
267 268 269 269 269 269 269 268 268 267 267 266 265 263 262 261 261 262 262 262 262 261 260 258 258 258 259 261 262 263 264 267 271 276 273 267 261 254 248 243 239 237 235 231 228 226 227 229 231 231 230 230 230 230 230 231 231 232 231 231 233 235 235 234 234 233 232 233 233 234 235 231 228 229 229 229 226 221 217 217 220 220 217 219 225 227 233 238
269 270 270 270 270 269 268 267 267 266 265 264 264 263 262 260 260 260 260 259 259 258 257 256 255 255 257 258 260 261 261 264 269 271 267 263 259 253 246 242 237 236 234 230 226 224 225 228 230 230 228 227 228 229 229 230 230 232 234 233 233 233 234 233 233 232 230 231 232 234 236 235 231 227 226 227 227 223 220 219 221 224 222 222 227 229 229 232
270 270 270 270 269 269 268 266 265 264 263 262 261 261 260 259 258 258 257 257 256 255 254 253 253 253 254 256 258 258 258 261 264 263 260 258 254 248 243 238 234 233 232 229 226 224 224 226 228 228 227 226 227 228 228 230 230 231 234 235 235 233 234 234 234 232 230 228 230 232 234 236 235 231 227 227 228 227 225 223 222 225 226 226 229 234 238 242
271 271 271 270 270 268 267 266 264 263 262 261 260 259 258 257 256 256 255 254 253 252 250 250 250 250 251 253 253 253 256 258 258 256 255 253 249 244 239 235 232 231 230 228 225 224 224 225 226 227 226 224 225 226 228 230 231 231 233 236 237 236 235 234 235 234 231 228 228 230 232 234 235 234 231 228 228 229 228 226 224 225 228 229 230 235 241 248
273 273 272 272 270 268 267 265 264 262 261 259 258 257 256 255 254 254 253 252 250 249 248 247 247 247 248 249 249 251 254 254 252 250 248 247 243 238 234 231 229 228 228 226 225 224 224 224 226 227 227 226 227 227 228 230 231 231 232 234 236 237 237 236 236 235 232 229 228 228 230 231 232 234 233 231 229 230 230 228 226 226 227 230 231 234 240 245
274 274 274 273 271 269 267 265 263 261 260 258 256 255 254 253 252 251 250 249 248 247 246 245 245 245 246 246 247 249 249 248 245 243 242 240 236 233 231 229 226 227 227 227 226 224 223 223 227 229 229 229 229 228 229 231 232 232 232 233 234 235 237 238 238 238 234 231 229 228 228 231 231 232 233 232 230 229 230 230 228 228 228 230 231 232 236 241
275 276 275 273 271 269 267 266 264 262 259 257 255 253 252 250 249 248 247 246 245 244 243 243 243 243 243 244 244 243 243 243 239 236 235 233 232 231 231 228 226 227 228 227 227 225 222 224 227 230 230 230 229 228 229 232 233 233 233 234 234 234 234 235 239 243 241 236 232 228 226 230 233 234 232 232 231 228 229 231 231 230 230 231 231 231 235 239
277 278 276 274 272 271 269 267 265 262 260 257 255 252 249 248 246 245 243 243 242 241 240 240 240 240 241 240 239 239 239 237 233 230 229 229 230 231 231 230 228 229 230 230 229 226 225 226 229 230 230 231 231 229 230 232 235 235 235 236 236 235 233 232 234 240 244 243 238 231 227 229 232 235 233 231 231 230 228 229 231 230 230 231 229 228 230 233
278 278 277 275 274 273 271 269 266 263 261 258 255 252 248 246 243 241 240 239 238 237 237 237 237 237 236 235 234 234 233 232 228 226 226 229 231 231 232 231 230 230 231 232 231 229 229 229 230 229 229 230 231 230 230 232 235 236 237 238 238 237 235 232 229 231 238 243 243 239 235 232 231 233 233 231 231 231 231 229 229 231 230 230 228 226 225 227
278 279 278 278 278 277 275 272 269 266 262 259 255 251 247 243 240 238 236 235 234 233 233 234 234 233 232 231 231 229 229 228 224 222 225 229 230 230 232 233 231 231 233 234 232 232 233 232 233 233 233 233 233 232 231 232 234 237 238 240 240 240 238 235 231 228 231 237 241 242 241 238 234 233 232 231 231 231 233 231 229 231 231 229 229 227 226 227
278 279 280 280 281 280 279 277 274 270 265 259 254 250 245 241 237 234 232 231 230 230 230 231 230 229 228 227 226 225 225 224 220 218 223 227 227 230 233 233 232 232 233 234 232 232 233 234 234 234 234 235 236 236 235 234 235 237 239 241 241 241 239 237 233 229 229 233 236 239 242 241 237 235 232 231 231 230 233 234 232 232 231 230 229 227 228 229
279 282 283 283 283 283 283 283 281 277 270 263 256 249 244 239 234 230 228 226 226 226 226 226 226 225 224 223 222 221 221 220 216 218 223 225 227 230 232 233 232 231 232 232 230 230 231 232 234 236 238 240 240 239 239 238 238 238 239 241 241 241 240 238 235 230 228 231 233 234 239 241 239 237 234 232 231 230 231 235 235 234 231 229 228 227 227 228
280 283 286 286 286 287 288 288 287 283 277 269 259 249 242 236 230 226 223 222 222 222 223 223 222 221 219 219 218 217 217 216 214 218 223 225 227 229 230 232 232 231 233 235 233 233 235 236 240 244 246 245 241 239 238 237 237 238 240 241 241 241 241 240 238 233 229 230 232 230 234 240 241 239 236 232 232 231 231 234 236 236 234 232 229 227 226 228
279 283 286 288 290 292 293 294 292 288 281 271 260 249 241 234 228 222 219 218 218 218 219 219 219 218 216 215 215 213 214 213 213 217 220 224 227 229 231 233 233 234 235 235 234 235 236 237 237 236 236 237 236 235 236 235 234 235 237 239 240 241 241 241 240 236 232 230 230 228 230 238 242 241 239 234 232 231 232 233 235 235 235 234 232 229 228 229
276 281 285 289 293 296 298 300 298 294 285 274 261 249 240 233 226 221 217 214 213 214 215 216 216 215 214 213 211 210 212 212 214 216 220 225 227 228 230 233 234 237 237 233 231 232 232 233 234 235 239 239 237 237 237 236 236 236 237 239 241 241 242 242 241 239 235 231 228 228 229 234 238 241 240 237 234 232 231 232 234 235 235 234 233 232 231 229
273 277 282 287 292 296 300 304 305 300 291 279 266 251 240 231 225 220 215 211 210 211 212 212 212 212 211 209 207 209 211 211 213 216 218 222 224 225 229 232 232 233 234 231 229 229 231 233 235 238 239 236 232 233 233 232 234 236 237 237 238 239 240 241 241 240 237 231 226 227 230 232 234 237 239 237 236 233 231 232 233 235 235 234 233 233 233 230
272 274 278 283 288 293 299 305 308 306 299 287 270 252 238 228 221 216 212 208 207 208 209 209 210 209 207 206 206 207 208 209 212 214 217 221 224 226 230 231 231 230 229 226 225 228 230 230 229 230 233 234 234 236 235 234 236 236 234 233 234 235 236 237 238 238 237 231 224 226 231 232 232 235 236 235 236 234 232 232 234 235 235 234 233 233 233 232
270 272 275 278 283 289 295 302 309 311 306 292 270 249 233 223 217 214 210 206 204 204 205 206 207 206 206 205 206 207 207 210 212 214 216 220 224 225 226 227 227 226 225 225 228 233 236 235 236 239 242 244 243 242 240 240 240 238 235 233 233 234 235 236 237 237 236 230 223 224 230 232 233 236 234 232 235 235 234 234 234 236 237 236 234 232 231 232
266 268 271 273 278 283 290 297 307 313 310 296 272 245 225 216 211 208 207 206 204 202 201 202 203 204 205 205 205 205 207 210 212 214 215 219 222 220 221 225 226 224 223 226 231 239 243 242 239 242 244 244 244 243 243 241 239 239 240 239 239 241 241 240 240 239 237 231 223 221 227 229 231 235 234 230 233 235 234 234 234 235 237 237 236 233 231 230
262 263 266 269 273 277 284 292 303 312 312 299 278 245 222 214 207 202 199 201 203 202 200 200 200 201 203 204 204 205 207 209 211 212 213 216 218 216 217 221 222 223 223 226 230 235 238 234 226 230 236 239 239 241 243 243 238 238 242 243 242 244 244 242 241 240 238 232 224 220 223 225 228 233 233 229 232 234 233 233 231 232 235 236 235 235 232 231
259 260 261 264 268 272 277 285 298 308 311 305 290 252 226 217 210 205 199 195 196 200 201 200 200 200 201 203 204 205 207 210 212 212 211 211 212 214 217 218 219 222 222 222 226 230 235 235 231 232 237 240 240 241 246 248 244 240 241 240 239 241 241 238 237 237 235 230 225 221 221 222 227 233 232 229 231 232 231 232 230 229 232 234 234 234 234 233
257 257 257 259 262 266 272 279 291 304 310 307 289 246 225 217 209 208 205 197 193 194 198 201 201 201 201 202 204 206 206 207 208 208 208 209 211 213 216 216 218 220 219 220 226 230 235 239 237 237 241 244 242 240 243 246 243 239 238 237 235 239 242 241 242 243 239 231 225 222 220 221 226 232 232 229 230 231 230 231 230 229 229 232 233 233 234 235
255 255 255 256 257 261 266 273 283 298 306 301 268 224 211 205 199 199 201 200 195 192 194 199 203 203 203 203 202 203 203 203 205 207 208 210 212 213 214 215 216 218 219 222 227 229 232 236 238 238 242 246 244 240 240 244 245 243 242 239 234 237 243 246 246 247 243 235 228 223 220 220 224 231 233 230 229 231 231 230 230 229 227 229 231 232 233 235
255 255 255 255 255 256 261 266 275 290 298 285 244 216 206 200 196 191 189 192 195 193 191 194 200 204 205 205 203 201 202 204 205 206 207 209 210 212 214 215 216 218 221 222 225 228 230 234 237 238 241 245 244 240 240 245 248 248 247 246 242 242 247 248 247 247 243 234 227 223 223 223 224 230 234 232 229 229 229 228 230 230 228 226 228 230 232 233
255 255 254 253 252 252 254 260 267 279 284 270 235 217 210 206 197 184 177 181 188 192 190 188 191 197 201 202 204 203 201 202 203 204 206 208 210 213 215 216 218 220 221 222 225 228 231 234 236 235 236 238 238 237 236 241 244 244 245 246 245 243 244 246 248 249 246 237 224 217 221 225 227 229 232 231 228 227 226 225 227 230 231 228 228 229 230 232
254 254 253 252 250 248 248 251 257 268 277 272 245 219 204 201 196 186 182 182 185 190 192 188 184 187 193 197 201 203 200 199 201 203 205 208 211 213 215 216 220 220 221 223 227 230 232 235 236 235 235 237 239 238 237 239 242 243 244 245 244 242 244 247 248 248 247 241 225 213 215 222 227 230 230 228 225 225 225 223 224 229 232 232 230 230 230 232
253 252 252 250 248 245 243 242 244 252 260 259 246 222 203 196 192 190 192 191 188 187 190 192 186 183 189 195 198 201 200 199 201 202 204 207 210 212 215 216 219 222 222 225 229 233 236 237 237 237 239 240 240 239 238 240 243 244 245 244 243 240 239 241 242 244 245 241 226 213 211 216 224 228 229 228 225 226 225 222 222 225 228 230 231 232 232 233
252 251 249 248 245 242 238 235 233 233 234 224 202 197 200 198 194 191 192 195 193 187 185 190 189 183 184 190 194 199 202 201 201 201 204 207 208 211 214 216 220 224 225 228 232 236 239 240 240 240 243 243 241 240 240 241 243 245 246 245 243 240 236 237 239 242 245 241 226 213 212 214 218 222 225 225 225 227 227 224 221 222 224 226 227 228 230 231
251 248 245 243 241 237 233 231 229 230 238 238 217 203 195 192 196 195 189 187 188 184 182 187 193 189 185 185 190 196 202 203 202 204 206 207 208 211 215 219 223 227 229 232 236 238 240 243 244 245 245 247 245 242 241 241 241 243 245 246 247 245 240 241 244 245 246 243 227 213 214 216 218 220 221 222 222 224 228 227 222 220 223 223 223 224 226 228
250 246 243 240 237 233 230 229 229 230 237 241 239 221 199 186 191 195 190 186 181 178 179 187 196 195 188 188 191 194 197 198 201 206 209 209 209 210 215 221 226 230 234 235 237 241 242 244 248 249 250 252 251 248 245 242 241 243 246 246 248 247 242 241 244 244 243 241 229 215 211 213 218 221 221 222 221 220 224 227 223 220 222 222 222 223 223 224
248 246 244 240 238 233 228 224 220 222 226 217 202 209 202 190 190 192 190 189 184 180 181 184 190 192 191 192 193 193 194 195 199 205 207 209 211 212 217 223 224 228 232 232 235 240 243 245 250 253 254 255 257 256 252 250 249 248 247 246 245 245 242 240 242 242 241 239 233 222 213 210 212 215 217 222 223 219 219 224 223 220 220 220 220 221 221 222
245 244 243 241 237 233 226 220 215 216 218 209 196 202 201 193 192 192 189 188 187 187 187 185 184 187 193 196 195 193 194 195 199 204 206 208 211 214 218 219 217 220 224 226 229 234 238 242 246 250 253 255 259 260 258 255 254 251 250 250 249 247 245 242 242 242 240 238 235 228 224 217 210 209 210 215 220 219 217 220 222 220 219 217 217 218 219 220
241 241 241 242 238 232 226 222 220 220 217 210 202 203 200 194 193 193 190 187 189 192 195 192 186 185 189 194 196 196 194 193 197 202 205 208 210 213 217 215 212 213 216 219 221 224 228 231 235 243 250 255 258 259 258 255 256 256 255 254 252 250 249 248 247 245 244 241 236 230 230 223 215 214 212 211 217 219 216 218 220 220 218 217 216 217 219 220
239 237 239 245 242 235 228 224 222 221 219 216 209 205 201 196 194 192 189 190 192 194 196 196 193 190 189 190 191 190 188 191 196 201 207 210 209 211 216 215 211 212 214 214 214 215 219 222 225 236 245 248 251 256 258 258 258 259 257 255 254 255 256 258 260 255 249 247 243 238 237 229 224 224 218 214 218 218 215 216 219 220 218 218 218 217 219 221
236 235 236 244 245 239 231 225 222 218 215 215 213 209 205 199 195 192 191 193 194 195 196 194 192 193 192 189 186 184 186 191 195 200 207 212 211 210 214 216 212 210 213 211 207 208 215 217 220 227 234 238 243 250 252 253 255 256 258 259 260 262 264 269 272 264 254 249 246 245 244 239 235 234 225 221 224 223 217 214 216 218 218 217 218 218 219 222
232 231 233 237 241 239 233 228 224 220 216 215 215 215 213 206 199 196 196 196 193 194 197 194 190 189 190 189 187 186 187 193 197 199 203 210 211 206 207 213 209 206 211 208 203 204 208 211 217 224 229 232 234 239 244 249 254 257 257 256 254 256 260 264 265 262 255 247 241 239 239 238 241 242 233 225 226 227 223 217 214 216 217 217 216 215 218 221
229 229 232 235 238 240 238 233 228 223 219 217 216 216 216 212 205 200 199 198 195 194 195 193 189 188 188 189 189 190 193 197 201 202 202 207 212 208 207 210 205 203 208 205 201 203 203 206 214 223 231 236 237 243 251 255 259 261 262 261 258 255 254 252 250 248 247 241 233 230 231 229 232 239 235 225 223 226 226 221 216 215 217 218 215 213 216 219